Main page
METAR-TAF:

METAR-TAF

Airports :

Rasht, Iran

Rasht Airport

latitude: 37-12N, longitude: 049-38E, elevation: -7 m

Current weather observation

The report was made 30 minutes ago, at 16:00 UTC
Calm wind
Temperature 11°C
Humidity 94%
Pressure 1022 hPa
Visibility: 5000 m
Scattered clouds at a height of 1500 ft
Broken clouds at a height of 7000 ft
mist

METAR: OIGG 181600Z 00000KT 5000 BR SCT015 BKN070 11/10 Q1022

Time: 20:00 (16:30 UTC)


TAF: missing

Weather observations and forecasts of more than 4000 airports (METAR and TAF reports).

The available stations are represented by yellow and red dots on the map.

Hover mouse over dot to see the name of the station.

Then click to see weather observations and forecasts.

To change the map : click on the green buttons with a black cross to zoom in, on the green button with a dash to zoom out, or on the green arrows for adjacent maps.


METAR-TAF: